Regional Weather Roundup
Issued by NWS

Home | Current Version | Previous Version | Text Only | Print | Product List | Glossary Off
Versions: 1 2 3 4 5 6 7 8 9 10 11 12 13 14 15 16 17 18 19 20 21 22 23 24 25 26 27 28 29 30 31 32 33 34 35 36 37 38 39 40 41 42 43 44 45 46 47 48 49 50

384
ASUS45 KBOU 241910
RWRCO

WEATHER ROUNDUP FOR COLORADO
NATIONAL WEATHER SERVICE DENVER/BOULDER CO
1200 PM MST FRI NOV 24 2017

NOTE: "FAIR" INDICATES FEW OR NO CLOUDS BELOW 12000 FEET WITH NO
SIGNIFICANT WEATHER AND/OR OBSTRUCTIONS TO VISIBILITY.

COZ001>005-013-030-031-242000-
...NORTHWEST COLORADO...

CITY           SKY/WX    TMP DP  RH WIND       PRES   REMARKS
CRAIG          FAIR      56  34  43 SW7       29.99F
HAYDEN         FAIR      50  34  54 S6        30.02F
MEEKER         PTSUNNY   59  31  34 W14G20    30.01F
RABBIT EARS PA FAIR      37  28  70 W9G16     30.12F
STEAMBOAT SPGS FAIR      48  36  63 CALM      30.01F
WALDEN         FAIR      50  25  37 W24G31    30.02F
$$

COZ006>008-011-242000-
...WEST CENTRAL VALLEYS...

CITY           SKY/WX    TMP DP  RH WIND       PRES   REMARKS
GRAND JUNCTION FAIR      54  35  48 W5        30.04F
MONTROSE       FAIR      56  29  35 N7        30.06F
EAGLE          CLOUDY    44  32  62 CALM      30.07F
RIFLE          PTSUNNY   46  35  65 SE5       30.06F
DELTA          FAIR      57  31  38 CALM      30.04F
NUCLA          FAIR      55  27  33 CALM      30.11F
$$

COZ017>023-064>068-242000-
...SOUTHWEST COLORADO...

CITY           SKY/WX    TMP DP  RH WIND       PRES   REMARKS
DURANGO        FAIR      54  29  38 E5        30.11F
CORTEZ         FAIR      62  29  28 VRB5      30.09F
PAGOSA SPRINGS FAIR      53  23  30 CALM      30.15F
TELLURIDE      FAIR      57  21  25 W16G25    30.21S
WOLF CREEK PAS FAIR      37  21  52 SW10      30.35F
$$

COZ009-010-012-014-032>034-037-058>063-242000-
...CENTRAL COLORADO...

CITY           SKY/WX    TMP DP  RH WIND       PRES   REMARKS
ASPEN          PTSUNNY   47  26  44 NW6       30.07F
BUENA VISTA    FAIR      58  16  19 W20G29    30.04F
COPPER MTN     CLOUDY    37  23  56 W16G23    30.22F
BERTHOUD PASS  LGT SNOW  28  18  64 W45G62    30.16F WCI  10
COTTONWOOD PAS PTSUNNY   52  18  25 NW8       30.13F
GUNNISON       FAIR      40  26  57 CALM      30.13F
KREMMLING      FAIR      55  28  35 SW13G18   30.04S
LEADVILLE      CLOUDY    43  19  38 NW7       30.13F
MONARCH PASS   CLOUDY    34  18  51 W29G38    30.34F WCI  20
SALIDA         FAIR      61  15  16 W22G31    30.11F
SUNLIGHT       CLOUDY    36  23  60 SW12G20   30.23S
WILKERSON PASS PTSUNNY   45  18  33 W7        30.20F
$$

COZ069>075-242000-
...SAN LUIS VALLEY/SANGRE DE CRISTO MOUNTAINS...

CITY           SKY/WX    TMP DP  RH WIND       PRES   REMARKS
ALAMOSA        FAIR      56  21  25 E7        30.06F
DEL NORTE      FAIR      51  24  35 E8        30.09F
LA VETA PASS   FAIR      52  18  25 MISG        N/A
SAGUACHE       FAIR      52  27  37 SE9       30.08F
$$

COZ035-036-038>040-242000-
...NORTHERN COLORADO FRONT RANGE...

CITY           SKY/WX    TMP DP  RH WIND       PRES   REMARKS
DENVER INTL AP PTSUNNY   68  24  19 NW24      29.86S
DMNS CITY PARK   N/A     72  22  15 N10       29.85S
AURORA         PTSUNNY   68  25  20 NE10      29.88S
FRONT RANGE AP PTSUNNY   68  28  22 NW9       29.88S
ERIE MUNI ARPT FAIR      71  20  14 NW16G28   29.90S
BOULDER MUN AP FAIR      70  25  18 W15G24    29.86S
CENTENNIAL     PTSUNNY   65  27  23 NE9       29.88S
BROOMFIELD     PTSUNNY   72  21  15 W23G32    29.88R
FORT COLLINS   FAIR      68  32  26 S8        29.85F
LONGMONT       FAIR      74  24  15 W10G22    29.86F
$$

COZ041-046-047-076>085-087-088-242000-
...PIKES PEAK/PALMER DIVIDE AND SOUTHERN FOOTHILLS...

CITY           SKY/WX    TMP DP  RH WIND       PRES   REMARKS
COLO. SPRINGS  PTSUNNY   70  21  15 S10       29.88F
A. F. ACADEMY  FAIR      69  19  15 NW12G30   29.89S
SCHRIEVER AFB  FAIR      68  19  15 NW6       29.89F
CHEYENNE MTN   FAIR      64  16  15 SE9       29.87F
ELLICOTT         N/A    N/A N/A N/A NW9       29.88F
FALCON         FAIR      66  18  16 NW10G20   29.93F
FORT CARSON    FAIR      70  19  14 E12       29.85F
LIMON          FAIR      68  24  19 N14       29.86S
MONUMENT HILL  FAIR      61  23  23 NW12      29.95S
CANON CITY     FAIR      79  27  14 W20G28    29.83F
WALSENBURG     FAIR      70  19  14 S6        29.89F
TRINIDAD       FAIR      73  17  12 W20G29    29.89F
$$

COZ042>045-048>051-090-091-242000-
...NORTHEAST COLORADO...

CITY           SKY/WX    TMP DP  RH WIND       PRES   REMARKS
GREELEY ARPT   FAIR      70  36  28 S7        29.83
AKRON          FAIR      68  25  19 NW21      29.85R
BURLINGTON     FAIR      72  29  20 N10       29.81F
WRAY           NOT AVBL
YUMA           FAIR      64  18  16 NW14G23   29.82R
STERLING       FAIR      64  34  32 NE20G29   29.83F
HOLYOKE        FAIR      70  32  24 N23G33    29.83R
FORT MORGAN    FAIR      65  27  24 N3        29.85F
$$

COZ086-089-092>099-242000-
...SOUTHEAST COLORADO...

CITY           SKY/WX    TMP DP  RH WIND       PRES   REMARKS
PUEBLO         FAIR      76  20  12 MISG      29.80F
LA JUNTA       FAIR      75  25  15 W10       29.79F
LAMAR          FAIR      73  24  16 W12       29.74F
SPRINGFIELD      N/A     75  21  13 NW18G25   29.77F
$$




USA.gov is the U.S. government's official web portal to all federal, state and local government web resources and services.